Regional Weather Roundup
Issued by NWS

Home | Current Version | Previous Version | Graphics & Text | Print | Product List | Glossary On
Versions: 1 2 3 4 5 6 7 8 9 10 11 12 13 14 15 16 17 18 19 20 21 22 23 24 25 26 27 28 29 30 31 32 33 34 35 36 37 38 39 40 41 42 43 44 45 46 47 48 49 50
000
ASUS43 KLOT 310103
RWRIL

ILLINOIS REGIONAL WEATHER ROUNDUP
NATIONAL WEATHER SERVICE CHICAGO/ROMEOVILLE IL
800 PM CDT MON MAY 30 2016

NOTE: "FAIR" INDICATES FEW OR NO CLOUDS BELOW 12,000 FEET WITH NO
SIGNIFICANT WEATHER AND/OR OBSTRUCTIONS TO VISIBILITY.

* THESE STATIONS ARE NOT UNDER NWS QUALITY CONTROL. THEY ALSO MAY NOT
  REPORT WEATHER SUCH AS PRECIPITATION OR FOG.

ILZ001-002-007-009-015-016-024-310200-
NORTHWEST ILLINOIS

CITY           SKY/WX    TMP DP  RH WIND       PRES   REMARKS
MOLINE         PTCLDY    83  61  47 S3        29.93F HX  83
$$

ILZ003-004-008-010-011-017-018-310200-
NORTH CENTRAL ILLINOIS

CITY           SKY/WX    TMP DP  RH WIND       PRES   REMARKS
ROCKFORD       CLOUDY    80  50  34 NE5       29.98S HX  80
FREEPORT*      CLEAR     78  53  41 NE3       29.98R
ROCHELLE*      CLOUDY    80  54  40 NE7       29.96S HX  80
$$

ILZ005-006-012>014-019>023-310200-
NORTHEAST ILLINOIS

CITY           SKY/WX    TMP DP  RH WIND       PRES   REMARKS
CHICAGO-OHARE  MOCLDY    77  56  48 E9        29.96R
CHICAGO-MIDWAY CLOUDY    77  55  46 NE9       29.96R
AURORA           N/A     80  58  46 NE6       29.96R HX  80
LANSING*       CLOUDY    77  56  48 NE3       29.96S
WAUKEGAN       CLEAR     68  57  68 E5        29.97S
DUPAGE AIRPORT CLOUDY    78  55  44 NE5       29.95S
WHEELING       CLEAR     73  55  53 E6        29.98R
NORTHERLY ISL    N/A     67  55  65 MISG        N/A
NORTHERLY ISL    N/A     67  55  65 MISG        N/A
$$

LMZ740>746-310200-
SOUTHERN LAKE MICHIGAN

STATION/POSITION SKY/WX   TEMP    WIND        PRES    VSBY  WAVE
                          AIR SEA DIR/SP/G                  HT/PER
                          (F)     (DEG/KT/KT) (MB)    (MI)  (FT/S)
SOUTHERN BUOY              61 59   80/  4/  4 1015.2          0
WILMETTE HARBOR            63 61   60/  2/  4   N/A           1
HARRISON CRIB              68      30/  4/  4   N/A
BURNHAM HARBOR             67     350/  3/  4   N/A
CALUMET HARBOR             68                   N/A
BURNS HARBOR               69      80/ 10/ 11 1014.9S
MICHIGAN CITY              68      30/ 10/ 10   N/A
MICHIGAN CITY 6N           67 63   60/  6/  6   N/A           0
ST. JOSEPH                 69 66   10/  8/  8   N/A           1
$$

ILZ025>027-034>036-040-047-049-050-058-095>099-310200-
WEST-CENTRAL ILLINOIS

CITY           SKY/WX    TMP DP  RH WIND       PRES   REMARKS
QUINCY         CLOUDY    80  64  58 S6        29.97S HX  82
MACOMB*        CLOUDY    80  64  59 S5        29.99S HX  81
PITTSFIELD*    CLOUDY    78  69  73 S6        29.99S HX  80
$$

ILZ028>032-037-038-041>044-048-051>054-059>061-310200-
CENTRAL ILLINOIS

CITY           SKY/WX    TMP DP  RH WIND       PRES   REMARKS
BLOOMINGTON    MOCLDY    77  64  63 SE8       29.99S
DECATUR        CLOUDY    78  63  59 SW5       29.98S HX  80
PEORIA         CLOUDY    79  62  56 SW5       29.96F HX  80
SPRINGFIELD    CLOUDY    77  57  50 S6        29.98S
TAYLORVILLE    NOT AVBL
$$

ILZ033-039-045-046-055>057-062-063-310200-
EAST-CENTRAL ILLINOIS

CITY           SKY/WX    TMP DP  RH WIND       PRES   REMARKS
CHAMPAIGN      TSTM      72  57  59 W18G28    29.99S
MATTOON        PTCLDY    76  66  71 SW5       29.98S
$$

ILZ079-100>102-310200-
SOUTHWEST ILLINOIS

CITY           SKY/WX    TMP DP  RH WIND       PRES   REMARKS
ALTON          CLOUDY    72  59  64 N6        30.01S
CAHOKIA*       CLOUDY    76  62  62 CALM      29.98S
SPARTA*        CLOUDY    80  65  60 CALM      29.99F HX  81
$$

ILZ064>066-069>071-074>076-080>082-084>086-088>090-092>094-310200-
SOUTH-CENTRAL ILLINOIS

CITY           SKY/WX    TMP DP  RH WIND       PRES   REMARKS
CARBONDALE     CLOUDY    77  65  66 CALM      29.98S
EFFINGHAM*     CLOUDY    77  71  83 CALM      30.00S
MT. VERNON     CLOUDY    73  66  78 CALM      29.99S
SALEM*         PTCLDY    78  67  69 CALM      29.98F HX  80
$$

ILZ067-068-072-073-078-083-087-091-310200-
SOUTHEAST ILLINOIS

CITY           SKY/WX    TMP DP  RH WIND       PRES   REMARKS
LAWRENCEVILLE  CLOUDY    80  63  55 N3        29.98S HX  81
FLORA*         PTCLDY    80  67  65 CALM      29.98F HX  82
HARRISBURG*    CLOUDY    80  72  78 CALM      29.98S HX  83
ROBINSON*      CLOUDY    78  62  58 SW3       29.98F
$$

ABBREVIATIONS USED IN REMARKS
   TC - TEMPERATURE IN CELSIUS
  WCI - WIND CHILL INDEX
   HX - HEAT INDEX
  VSB - VISIBILITY
$$





USA.gov is the U.S. government's official web portal to all federal, state and local government web resources and services.